User: anonymous   Login
Location: Caltech
(34.1382°N, 118.1253°W)
Time: 19:09:05
(UTC-07:00)
Language:

Cosmos 1939 Rocket - Orbit

View from above orbital plane
View from above orbital plane
View from above satellite
View from above satellite

Ground track
Ground track

The orbit data is extracted from the following two-line orbital elements,

1 19046U 88032B   16243.35996472  .00001196  00000-0  94549-4 0  9994
2 19046  97.5723 291.9336 0039573 241.2174 118.5074 15.01977130528988
Epoch (UTC): 30 August 2016 08:38:20
Eccentricity: 0.0039573
inclination: 97.5723°
perigee height: 533 km
apogee height: 588 km
right ascension of ascending node: 291.9336°
argument of perigee: 241.2174°
revolutions per day: 15.01977130
mean anomaly at epoch: 118.5074°
orbit number at epoch: 52898

The dashed part of the orbit path shows where the satellite is in the earth's shadow,  

DLR